Wetbulb
38.19 34.20 32.06 36.10 37.33 39.14 38.09 37.35 36.27 39.09 37.81 36.53 36.70 37.17 39.81 41.16 38.88 39.28 39.29 38.85 38.62 38.56 38.77 37.94 38.07 38.75 39.38 41.04 42.56 42.69 41.71 41.43 41.19 40.93 40.63 40.71 40.75 40.68 40.38 40.81 39.96 39.83 40.17 39.69
32.37 30.67 38.22 38.90 37.49 37.03 35.89 34.70 35.27 36.36 35.21 34.54 36.04 35.44 38.71 40.29 39.91 40.54 40.75 39.34 38.71 37.42 36.95 37.18 37.60 38.11 38.55 39.96 41.15 41.15 41.09 40.34 40.85 41.05 40.80 41.59 41.07 40.41 40.63 39.81 38.99 38.73 38.51 38.65
31.78 36.15 37.95 34.88 33.67 31.88 34.06 33.53 34.72 34.54 33.16 33.56 33.03 35.06 37.40 38.58 40.10 40.16 38.23 40.35 38.60 37.66 36.74 36.63 36.82 38.03 38.87 39.01 39.44 39.62 39.93 39.82 39.75 39.29 38.21 37.83 38.02 38.20 37.53 37.65 37.94 37.66 37.03 37.15
32.35 37.63 34.85 33.24 32.31 33.29 29.62 36.74 34.61 33.49 31.17 29.64 33.03 29.96 39.17 37.60 34.86 32.67 34.59 35.04 35.99 36.81 37.32 37.65 37.09 36.76 37.99 38.42 39.42 39.41 38.93 38.44 38.09 37.83 37.67 37.41 37.74 37.12 38.42 37.52 37.90 36.92 36.04 36.08
31.27 31.98 32.68 32.11 32.36 35.37 32.10 33.63 33.13 32.65 30.68 30.51 30.65 28.27 36.66 32.58 32.51 33.93 33.22 34.03 36.04 36.69 36.94 36.26 36.60 37.12 37.81 37.82 37.96 38.37 37.85 37.33 37.05 37.00 36.91 36.82 36.15 36.80 37.07 36.07 35.02 35.47 35.46 35.28
34.42 36.18 35.80 35.40 36.57 35.25 34.25 31.87 31.03 30.82 29.92 23.45 30.42 29.42 34.00 36.65 34.82 35.80 33.73 34.59 34.65 34.73 35.28 35.84 36.46 36.35 36.60 36.96 36.65 36.87 36.33 36.22 36.30 36.00 35.80 35.41 35.20 35.29 34.62 34.60 33.96 34.51 34.90 34.91
31.74 32.56 34.83 35.12 31.50 33.47 33.28 29.98 23.34 21.56 21.66 23.51 27.98 27.93 34.08 36.06 33.30 33.83 33.74 34.13 34.29 34.25 34.84 35.25 34.98 35.14 35.54 35.44 35.80 35.62 35.22 34.90 35.35 34.94 34.79 34.51 34.23 34.24 33.49 33.64 33.61 33.27 33.57 33.66
27.26 24.38 31.33 34.69 33.30 30.16 30.96 31.44 25.81 19.96 20.83 24.44 23.76 23.37 32.10 31.90 28.40 26.86 32.10 33.03 33.18 33.70 34.73 34.79 34.99 35.08 35.26 34.51 35.20 35.18 34.70 34.17 34.43 33.95 33.90 33.91 33.35 33.68 33.58 33.23 33.14 32.87 33.11 33.29
28.05 28.34 34.02 33.76 34.39 33.73 29.98 28.09 32.95 22.41 19.25 21.84 24.51 27.83 31.86 30.04 27.73 27.18 28.13 31.77 32.13 33.29 33.33 32.84 32.30 32.80 33.17 33.14 33.11 32.88 32.81 32.91 33.12 33.05 32.91 32.42 32.34 31.85 32.05 31.78 31.94 32.27 32.51 32.39
33.58 26.91 31.00 31.82 33.61 32.43 31.81 33.49 25.35 27.97 18.71 19.56 25.55 23.05 29.57 25.01 27.30 27.39 27.49 30.99 32.34 32.58 31.83 31.04 30.95 31.01 30.74 30.28 30.13 29.47 29.71 29.78 29.82 30.52 31.20 31.13 31.18 30.67 30.23 29.78 29.19 30.27 31.07 30.83
32.23 31.08 26.50 30.11 29.37 28.67 28.70 27.75 30.12 29.68 27.96 25.37 24.38 28.22 33.03 31.60 30.02 28.30 29.37 31.39 31.31 31.33 31.30 30.92 30.56 29.63 26.69 25.70 24.38 25.67 25.75 25.85 26.39 27.82 29.05 29.15 29.53 29.37 28.70 27.83 28.49 28.59 29.21 29.41
32.39 29.74 22.88 25.48 26.37 27.70 32.25 31.85 29.85 27.38 22.06 21.68 21.60 28.13 25.30 24.54 26.89 31.51 30.25 30.35 31.30 31.55 30.78 30.00 29.10 26.65 25.77 24.96 24.41 23.64 23.32 22.01 23.76 24.11 25.83 26.76 27.29 26.97 26.56 26.68 26.78 27.40 27.73 29.03
31.78 26.50 19.38 21.01 25.85 27.97 27.64 28.51 30.57 26.12 26.86 21.93 23.62 28.30 24.33 22.03 22.03 25.43 30.07 29.60 29.04 29.46 28.39 26.81 25.10 24.57 24.24 23.37 22.91 22.42 22.88 22.34 21.86 21.61 22.31 24.13 24.89 25.57 25.26 26.04 25.97 26.54 26.56 28.03
34.81 28.12 26.13 23.76 24.99 27.09 23.97 27.28 27.64 29.01 24.67 24.80 26.70 28.20 29.40 26.48 24.69 24.02 27.52 29.38 29.41 29.24 27.34 26.59 24.24 24.10 22.85 21.70 21.41 21.17 22.19 21.32 22.17 19.76 20.58 21.36 22.99 23.95 24.57 25.55 25.10 25.10 25.64 25.41
31.85 26.38 23.90 20.55 21.12 23.48 24.57 24.70 26.16 26.16 28.49 25.42 27.42 24.67 32.13 29.84 27.33 26.28 27.93 27.33 25.44 25.23 24.46 24.52 25.42 25.07 22.72 21.22 20.81 20.56 20.93 20.83 20.23 19.22 19.44 20.53 21.78 21.95 20.92 21.57 22.18 23.09 24.04 25.42
30.47 24.17 22.83 19.78 20.81 22.74 23.13 25.11 26.21 27.24 29.53 26.17 18.22 22.32 28.36 22.31 19.88 24.26 26.30 25.51 25.58 26.19 26.28 25.99 24.32 22.58 20.87 19.72 20.16 20.88 20.54 20.52 19.53 19.06 18.89 19.66 19.47 19.09 19.31 20.77 20.86 22.07 21.97 22.26
28.13 24.54 23.72 20.01 19.17 21.60 20.92 22.76 25.38 27.29 29.98 28.40 24.68 30.56 27.37 25.02 22.57 27.60 27.39 26.08 26.75 26.99 25.83 24.28 22.81 21.84 20.53 19.66 21.58 20.29 20.35 21.94 21.45 20.70 21.52 22.01 22.04 21.93 22.26 22.48 22.43 21.42 21.48 23.03
26.74 25.97 24.68 17.28 18.51 16.89 20.46 14.85 20.16 26.60 26.06 30.69 26.18 25.12 28.49 29.00 23.91 22.86 23.94 27.00 25.62 24.85 23.52 22.68 21.79 21.25 20.15 20.45 19.24 20.92 22.20 21.93 21.19 20.63 20.82 21.08 20.85 20.80 21.69 22.10 22.18 23.18 24.28 23.88
27.78 25.57 17.90 19.28 18.85 21.40 19.74 19.02 21.55 23.85 26.09 28.14 27.68 28.04 23.01 19.01 23.26 24.97 22.91 22.65 25.57 23.29 21.98 20.96 19.19 17.82 19.12 17.76 18.83 20.45 19.93 20.18 19.60 18.91 18.96 19.10 19.26 19.14 19.85 19.96 21.02 22.29 22.95 23.55
25.74 25.33 23.31 18.22 16.88 15.32 20.29 20.68 19.39 21.33 21.15 20.68 17.79 24.49 19.99 22.14 25.75 30.27 21.99 21.35 19.13 18.40 18.05 17.55 17.54 17.89 18.11 17.52 19.12 19.65 18.64 18.21 17.48 17.68 17.54 18.11 18.32 17.99 18.16 19.38 19.85 21.29 21.84 21.66
21.71 20.65 19.19 17.92 18.07 20.72 21.77 21.40 21.75 18.81 21.03 20.05 15.44 17.25 21.33 24.65 25.18 23.28 22.22 20.10 19.97 18.59 17.60 18.31 17.86 17.74 16.75 17.23 17.71 17.27 17.02 15.75 16.36 16.56 16.73 16.86 17.35 17.02 18.46 19.16 19.49 19.41 19.70 20.17
20.03 19.77 18.73 17.56 17.03 15.71 21.90 21.23 21.43 25.00 20.85 20.02 16.37 16.10 20.38 18.10 19.22 21.86 19.05 18.06 18.23 17.21 18.70 18.68 18.66 17.93 17.62 17.23 17.32 16.18 15.45 15.37 15.31 14.73 14.59 14.90 15.44 16.77 18.28 17.45 18.44 18.74 19.06 19.27
19.55 22.20 21.30 21.20 22.11 23.80 23.18 25.02 23.98 21.36 24.70 23.64 22.41 17.97 20.68 18.63 18.82 18.95 19.13 19.05 19.07 18.96 18.80 18.69 18.09 16.66 16.03 15.11 15.24 14.40 13.69 13.63 12.69 11.03 11.31 13.57 15.07 16.38 16.96 17.49 17.85 18.91 19.56 19.69
21.03 22.88 22.04 22.76 23.75 24.63 25.09 24.12 23.42 21.55 24.63 24.58 24.06 22.33 21.95 21.85 21.00 19.98 19.57 19.16 18.92 17.97 17.02 16.40 15.49 14.56 13.70 13.43 13.10 12.46 12.61 11.42 8.58 10.27 12.55 14.46 14.45 14.84 16.44 17.45 17.61 18.45 19.18 19.38
21.97 22.54 21.06 22.28 25.59 25.48 25.90 26.33 26.91 23.40 22.27 23.39 22.44 23.06 22.88 22.08 20.43 20.27 19.26 18.12 17.92 17.02 15.62 14.90 14.17 13.64 12.80 12.09 11.92 10.61 10.55 8.53 9.57 11.14 12.57 13.79 14.81 14.56 15.19 15.76 16.08 16.71 18.93 19.70
23.54 21.47 20.81 20.99 24.69 24.79 26.24 27.23 26.72 24.64 23.15 23.57 22.12 20.49 20.81 21.79 20.15 19.53 18.57 18.09 16.88 15.42 14.05 13.12 12.26 11.75 11.82 10.34 9.96 9.52 6.64 5.75 6.13 11.27 13.11 13.30 13.13 14.00 13.89 13.82 15.04 16.63 17.49 19.42
MSLP
1014.07 1014.03 1011.89 1011.64 1011.79 1011.40 1011.17 1010.73 1010.51 1010.56 1011.50 1011.71 1010.98 1010.54 1010.39 1010.81 1011.38 1011.46 1012.04 1012.80 1013.49 1014.17 1015.19 1015.91 1016.26 1016.35 1016.26 1016.21 1016.25 1016.71 1017.26 1018.02 1018.61 1019.11 1019.37 1019.63 1019.59 1019.99 1020.27 1020.49 1020.79 1020.72 1020.72 1020.79
1014.24 1012.17 1011.58 1012.39 1012.04 1011.76 1011.65 1011.40 1010.99 1011.59 1011.89 1012.03 1010.95 1009.98 1010.00 1009.93 1010.15 1010.34 1010.92 1011.94 1012.87 1014.01 1014.99 1015.65 1016.01 1016.23 1016.25 1016.34 1016.50 1016.91 1017.35 1018.00 1018.43 1018.81 1019.10 1019.34 1019.56 1019.89 1020.06 1020.41 1020.59 1020.72 1020.81 1020.77
1012.41 1009.63 1011.69 1012.11 1012.18 1012.11 1011.74 1011.30 1011.60 1011.89 1012.39 1012.30 1011.67 1008.92 1008.91 1008.84 1008.99 1009.85 1010.71 1011.25 1012.43 1013.33 1014.26 1015.13 1015.71 1016.07 1016.32 1016.50 1016.76 1017.06 1017.53 1017.96 1018.39 1018.75 1019.19 1019.54 1019.82 1020.03 1020.01 1020.11 1020.15 1020.40 1020.63 1020.69
1013.03 1011.62 1011.74 1011.78 1011.51 1011.73 1011.62 1011.54 1012.12 1012.63 1013.01 1012.26 1012.09 1008.20 1007.05 1007.81 1008.48 1009.67 1010.46 1011.25 1012.04 1013.04 1014.04 1014.68 1015.32 1015.95 1016.28 1016.62 1016.94 1017.29 1017.72 1018.08 1018.41 1018.75 1018.94 1018.96 1019.01 1019.08 1019.24 1019.62 1019.84 1020.17 1020.51 1020.49
1011.50 1011.57 1011.67 1011.92 1010.74 1011.57 1011.89 1012.63 1012.62 1012.89 1013.30 1013.13 1012.11 1011.37 1005.69 1007.70 1008.10 1008.69 1009.82 1010.97 1011.80 1012.73 1013.64 1014.41 1015.07 1015.61 1016.13 1016.73 1017.05 1017.45 1017.86 1018.18 1018.47 1018.77 1018.82 1018.90 1019.05 1019.11 1019.29 1019.66 1019.78 1019.85 1020.12 1020.34
1011.40 1011.56 1011.42 1011.06 1011.79 1012.13 1013.40 1013.90 1014.07 1014.02 1013.83 1012.80 1010.70 1010.92 1004.80 1006.68 1007.24 1007.91 1009.35 1010.55 1011.67 1012.77 1013.71 1014.46 1015.21 1015.77 1016.18 1016.78 1017.22 1017.61 1017.80 1018.08 1018.48 1018.65 1018.84 1018.95 1018.98 1019.07 1019.16 1019.22 1019.38 1019.44 1019.73 1019.92
1011.22 1011.22 1011.62 1011.46 1012.33 1013.13 1013.16 1013.38 1014.02 1014.21 1013.52 1011.50 1010.87 1010.76 1005.48 1006.63 1007.55 1008.23 1009.28 1010.48 1011.62 1012.77 1013.68 1014.38 1015.05 1015.64 1016.17 1016.59 1017.09 1017.47 1017.84 1018.03 1018.26 1018.54 1018.84 1019.04 1019.11 1019.28 1019.19 1019.15 1019.12 1019.17 1019.43 1019.70
1009.45 1010.66 1010.55 1010.91 1010.79 1010.93 1011.32 1011.09 1011.39 1011.59 1011.52 1010.86 1011.64 1009.52 1006.46 1007.44 1008.52 1009.41 1009.92 1010.79 1011.85 1012.82 1013.70 1014.45 1015.04 1015.73 1016.23 1016.66 1016.97 1017.33 1017.71 1017.94 1018.19 1018.48 1018.77 1018.88 1019.10 1019.10 1019.08 1019.18 1019.19 1019.28 1019.35 1019.68
1008.02 1008.74 1009.16 1009.85 1010.41 1010.28 1011.79 1011.32 1010.90 1011.16 1011.44 1010.79 1009.64 1008.17 1007.20 1007.99 1009.24 1010.10 1010.66 1011.10 1011.89 1012.89 1013.87 1014.61 1015.33 1016.04 1016.57 1016.94 1017.30 1017.51 1017.84 1018.07 1018.22 1018.47 1018.61 1018.73 1018.98 1019.16 1018.97 1019.23 1019.36 1019.37 1019.38 1019.54
1006.62 1007.98 1009.05 1009.96 1010.80 1011.01 1010.35 1009.99 1011.09 1010.34 1010.29 1009.67 1008.29 1008.04 1006.91 1008.02 1009.04 1010.14 1010.80 1011.05 1012.03 1013.21 1014.17 1014.96 1015.59 1016.41 1016.97 1017.47 1017.75 1017.94 1018.13 1018.36 1018.52 1018.49 1018.56 1018.73 1018.84 1019.13 1019.29 1019.42 1019.45 1019.42 1019.40 1019.60
1006.84 1007.17 1009.26 1009.93 1009.60 1009.05 1010.06 1009.91 1009.71 1009.47 1009.11 1008.35 1007.84 1006.59 1006.35 1007.34 1008.39 1009.49 1010.53 1011.21 1012.24 1013.35 1014.29 1015.15 1016.08 1016.94 1017.65 1018.07 1018.33 1018.39 1018.54 1018.62 1018.54 1018.51 1018.54 1018.73 1018.85 1019.01 1019.18 1019.35 1019.22 1019.31 1019.23 1019.27
1006.86 1007.04 1008.31 1008.86 1009.46 1009.46 1008.63 1008.62 1008.20 1007.93 1008.81 1008.52 1008.22 1006.67 1007.37 1008.47 1009.21 1009.62 1010.48 1011.64 1012.66 1013.58 1014.61 1015.58 1016.40 1017.21 1017.79 1018.22 1018.54 1018.71 1018.77 1018.79 1018.74 1018.68 1018.59 1018.45 1018.80 1018.94 1018.92 1019.12 1019.04 1019.08 1018.98 1018.87
1006.86 1007.20 1008.25 1009.42 1009.96 1009.69 1008.98 1008.74 1008.21 1008.31 1008.31 1007.82 1008.13 1007.05 1008.10 1009.04 1010.13 1010.72 1011.27 1012.19 1013.05 1013.96 1015.00 1015.98 1016.86 1017.50 1018.03 1018.43 1018.64 1018.72 1018.76 1018.77 1018.87 1018.66 1018.59 1018.48 1018.53 1018.70 1018.62 1018.72 1018.89 1018.82 1018.61 1018.57
1006.89 1006.82 1006.74 1007.14 1007.17 1007.53 1008.43 1008.03 1008.14 1007.65 1007.82 1007.42 1007.01 1007.45 1008.10 1009.25 1010.49 1011.24 1011.87 1012.53 1013.38 1014.25 1015.21 1016.09 1016.95 1017.55 1018.02 1018.39 1018.63 1018.62 1018.60 1018.66 1018.63 1018.58 1018.39 1018.33 1018.25 1018.36 1018.44 1018.43 1018.57 1018.46 1018.29 1018.27
1006.72 1006.64 1007.20 1007.78 1007.96 1007.95 1007.64 1007.54 1007.71 1007.39 1006.81 1007.18 1006.96 1008.00 1008.42 1009.40 1010.32 1011.12 1011.93 1013.09 1013.92 1014.59 1015.45 1016.26 1016.85 1017.38 1017.98 1018.30 1018.47 1018.60 1018.55 1018.50 1018.50 1018.44 1018.36 1018.12 1017.92 1018.08 1018.29 1018.38 1018.35 1018.13 1018.03 1017.95
1006.81 1006.95 1007.47 1008.27 1008.55 1008.50 1008.22 1007.94 1007.61 1007.28 1007.02 1007.40 1008.31 1008.38 1008.79 1010.26 1010.96 1011.67 1012.18 1012.93 1013.68 1014.58 1015.30 1016.04 1016.85 1017.51 1017.91 1018.21 1018.41 1018.50 1018.37 1018.28 1018.34 1018.25 1018.18 1018.03 1018.07 1017.93 1017.80 1017.85 1018.02 1017.77 1017.53 1017.60
1007.14 1007.42 1007.97 1008.51 1008.85 1008.90 1008.89 1007.79 1007.61 1007.16 1006.97 1007.31 1007.77 1007.71 1008.84 1010.49 1011.13 1011.30 1011.72 1012.53 1013.48 1014.48 1015.32 1016.21 1016.92 1017.41 1017.87 1018.27 1018.34 1018.25 1018.23 1018.03 1018.10 1018.11 1018.04 1017.88 1017.72 1017.66 1017.51 1017.29 1017.29 1017.26 1017.18 1017.10
1007.22 1007.39 1007.83 1008.64 1009.03 1008.73 1008.29 1008.69 1008.37 1008.10 1007.66 1007.57 1007.90 1008.82 1009.40 1009.89 1010.65 1011.45 1011.91 1012.65 1013.87 1014.82 1015.76 1016.50 1017.29 1017.61 1017.90 1018.30 1018.44 1018.13 1017.93 1017.82 1018.08 1017.93 1017.81 1017.80 1017.56 1017.53 1017.34 1017.25 1016.91 1016.66 1016.51 1016.44
1007.53 1007.47 1008.07 1008.38 1008.19 1007.93 1008.40 1008.84 1009.12 1008.71 1008.03 1008.24 1008.86 1009.69 1010.21 1010.98 1011.51 1012.02 1012.73 1013.51 1014.08 1015.21 1016.08 1016.89 1017.59 1018.02 1018.05 1018.26 1018.35 1018.02 1017.84 1017.85 1018.08 1017.91 1017.73 1017.76 1017.62 1017.50 1017.27 1017.05 1016.78 1016.23 1016.12 1015.94
1007.97 1007.71 1007.76 1008.17 1007.78 1007.78 1008.47 1008.90 1009.46 1009.13 1009.36 1009.67 1010.12 1010.10 1010.66 1011.69 1011.96 1012.19 1013.18 1014.25 1015.01 1015.88 1016.69 1017.34 1017.93 1018.18 1017.94 1018.17 1018.18 1017.79 1017.76 1017.97 1018.05 1017.98 1017.80 1017.69 1017.69 1017.56 1017.22 1016.97 1016.65 1015.97 1015.82 1015.67
1008.52 1008.40 1008.36 1008.37 1008.14 1008.10 1008.55 1009.28 1009.81 1010.08 1011.17 1010.84 1011.27 1011.22 1011.43 1011.79 1012.36 1012.77 1013.56 1014.71 1015.55 1016.37 1017.04 1017.71 1017.98 1017.94 1018.11 1018.19 1018.14 1017.85 1018.06 1018.14 1018.30 1018.13 1017.87 1017.70 1017.61 1017.46 1017.14 1016.81 1016.54 1016.06 1015.51 1015.41
1008.91 1008.77 1008.97 1009.03 1008.78 1008.90 1009.22 1010.09 1010.38 1010.51 1010.94 1011.66 1012.16 1012.03 1012.12 1012.47 1013.10 1013.60 1014.34 1015.16 1015.98 1016.70 1017.38 1017.80 1017.81 1017.87 1018.10 1018.28 1018.14 1018.11 1018.26 1018.43 1018.40 1018.30 1018.01 1017.85 1017.68 1017.42 1017.00 1016.76 1016.42 1015.88 1015.43 1015.17
1009.75 1009.44 1009.27 1009.28 1009.11 1009.15 1009.52 1009.93 1010.19 1010.67 1011.10 1011.50 1011.87 1012.32 1012.26 1012.77 1013.23 1013.75 1014.53 1015.44 1016.03 1016.73 1017.39 1017.51 1017.68 1017.84 1018.32 1018.61 1018.48 1018.38 1018.60 1018.83 1018.72 1018.56 1018.23 1017.98 1017.68 1017.32 1017.02 1016.66 1016.11 1015.50 1015.28 1014.99
1009.81 1009.91 1009.63 1009.32 1009.46 1009.43 1009.72 1010.16 1010.55 1010.92 1011.23 1011.53 1011.69 1011.85 1012.12 1012.52 1013.28 1013.85 1014.68 1015.43 1015.88 1016.75 1017.32 1017.82 1017.89 1017.98 1018.31 1018.80 1018.80 1018.91 1018.91 1019.13 1019.02 1018.71 1018.40 1018.05 1017.58 1017.33 1016.92 1016.43 1015.91 1015.51 1015.25 1014.87
1010.63 1010.37 1010.33 1009.86 1009.60 1009.69 1009.99 1010.31 1010.62 1011.10 1011.51 1011.62 1011.89 1011.80 1012.13 1012.85 1013.72 1014.39 1015.16 1015.54 1015.93 1016.62 1017.32 1017.85 1018.06 1018.22 1018.37 1018.70 1018.72 1018.96 1019.09 1019.36 1019.27 1018.88 1018.61 1018.10 1017.60 1017.31 1016.84 1016.33 1015.99 1015.71 1015.35 1015.05
1011.48 1011.47 1011.17 1010.83 1010.83 1010.73 1010.48 1010.69 1010.87 1011.17 1011.48 1011.80 1011.86 1012.35 1012.71 1013.34 1014.00 1014.81 1015.45 1015.83 1016.12 1016.62 1017.46 1017.92 1018.16 1018.22 1018.46 1018.57 1018.74 1019.09 1019.50 1019.66 1019.47 1018.86 1018.42 1018.01 1017.59 1017.23 1016.90 1016.44 1015.97 1015.73 1015.52 1015.04
Wind_Speed
9 10 21 24 23 18 11 16 17 9 7 9 17 17 17 15 14 14 13 12 11 10 5 2 1 0 2 5 10 13 14 13 9 7 6 4 5 4 4 3 3 3 3 3
7 24 22 13 19 21 14 14 14 3 6 7 7 16 15 16 19 21 19 16 14 11 9 5 3 2 4 7 9 11 12 12 9 5 4 2 2 2 2 3 4 4 4 3
22 20 19 17 15 17 22 23 18 14 4 4 7 22 19 15 17 14 11 13 12 14 13 9 7 5 7 8 10 10 11 10 8 6 4 3 3 2 4 5 4 5 5 5
15 19 9 19 22 19 20 15 15 11 4 12 2 15 14 11 13 12 13 14 14 14 11 10 9 8 7 7 8 8 9 9 7 7 6 6 5 5 3 3 3 4 5 5
14 13 22 11 20 18 10 4 8 11 14 9 12 7 8 6 10 16 16 15 15 14 13 12 10 8 8 8 7 7 8 7 7 6 5 5 6 4 4 4 6 6 5 6
7 0 14 16 13 13 15 8 5 3 4 8 13 14 21 12 9 6 16 18 16 14 11 9 7 7 7 7 7 7 7 7 7 7 6 7 7 6 5 5 5 4 4 4
6 6 4 3 7 5 10 12 5 5 7 8 6 13 26 2 5 5 16 19 16 14 11 11 10 8 8 8 8 6 7 8 7 7 7 7 7 7 7 6 5 5 4 5
14 8 14 10 9 12 21 14 7 10 9 5 5 14 9 1 3 1 3 12 15 13 10 10 8 7 7 6 6 7 7 6 6 7 8 6 7 5 5 6 5 5 5 5
11 10 11 19 6 13 8 10 2 6 2 2 7 8 13 8 5 5 11 17 15 13 10 9 7 6 6 6 5 5 5 5 5 7 6 6 6 7 6 6 6 6 6 5
6 7 11 7 5 1 6 13 5 4 8 7 7 8 9 8 12 11 14 17 15 12 10 8 7 6 5 3 2 3 3 4 4 4 5 6 6 6 5 5 7 7 5 6
4 3 7 11 11 15 8 7 6 4 3 6 5 7 2 2 14 16 15 14 14 13 11 9 7 5 3 2 1 1 3 4 4 4 4 5 6 6 6 7 7 7 6 7
7 3 5 7 2 3 5 5 8 7 7 2 2 6 1 1 1 11 12 11 12 11 10 7 6 4 3 2 1 1 1 3 4 4 5 6 6 7 6 7 7 7 7 7
7 5 6 5 2 3 8 6 6 6 1 9 8 5 2 1 3 5 10 10 11 10 9 6 5 4 3 2 1 0 1 2 3 3 4 5 6 7 7 7 7 7 7 8
7 5 5 8 3 6 9 17 14 11 6 7 13 3 1 3 7 9 9 10 10 9 8 6 5 5 3 2 1 1 2 2 3 2 3 5 6 6 7 7 7 7 7 7
6 5 3 3 1 2 4 15 19 18 13 13 6 12 2 5 9 9 8 9 9 8 8 8 6 5 3 2 1 2 2 3 3 3 3 5 4 5 5 7 7 7 7 8
2 1 3 2 2 2 4 8 17 18 16 8 2 6 4 3 2 8 11 11 10 9 9 8 6 4 3 2 2 3 3 3 2 3 3 3 4 4 5 6 7 7 7 7
7 7 5 4 0 2 6 13 18 14 14 12 17 10 5 3 8 11 13 12 11 9 8 8 6 5 3 2 2 2 3 2 2 1 2 3 3 3 4 5 6 7 8 7
5 6 2 3 4 7 1 1 2 11 6 14 2 3 7 3 2 1 2 11 9 8 8 6 5 4 3 2 1 3 2 2 2 3 3 4 4 5 5 5 5 6 6 8
3 4 5 4 4 3 4 3 5 6 3 5 12 8 3 2 3 2 3 3 8 8 6 6 4 3 4 2 1 1 2 2 3 3 4 5 5 5 5 6 6 5 6 7
5 6 2 1 2 2 3 2 1 1 3 3 3 3 8 8 7 3 9 7 8 7 6 6 5 4 3 2 2 1 2 2 3 4 5 5 5 6 6 6 6 4 5 7
2 3 2 1 1 3 1 3 2 3 2 3 3 3 10 7 2 6 11 6 7 6 7 5 4 4 3 1 0 2 1 2 4 5 5 5 5 6 5 6 6 5 5 6
0 3 2 2 1 4 5 5 2 2 2 2 4 3 5 5 8 9 7 8 8 7 6 5 5 4 3 2 1 2 1 4 5 5 5 5 5 4 4 5 5 4 4 5
1 1 1 4 2 2 4 2 1 2 1 3 2 6 7 8 6 9 8 9 7 7 6 4 4 5 3 2 2 1 2 4 4 5 4 4 5 4 4 5 5 4 3 3
1 0 2 2 1 3 3 3 3 4 2 2 1 7 8 6 9 8 9 8 8 7 5 4 4 4 3 1 1 0 1 4 4 4 4 4 4 5 4 4 3 3 3 4
3 0 3 3 1 3 2 3 3 5 3 3 3 4 7 7 9 9 8 8 7 7 5 4 3 3 3 2 1 1 2 3 4 4 4 4 3 4 5 4 3 4 4 5
5 3 2 1 4 3 2 4 3 4 6 7 7 6 5 7 9 8 7 6 7 7 5 4 3 1 2 2 3 3 2 2 3 4 3 3 3 3 3 4 5 4 6 8
Wind_Direction
187 205 218 214 216 228 269 239 241 228 177 212 226 241 239 215 216 218 218 214 212 207 181 209 289 69 154 169 172 172 165 164 161 166 170 192 206 198 207 223 219 216 219 234
175 225 224 241 218 224 226 237 230 246 162 218 253 254 243 242 231 229 224 214 201 182 184 178 157 147 167 155 160 164 165 165 172 175 174 190 182 199 243 216 216 227 237 253
201 222 203 194 203 215 232 236 240 244 162 240 287 272 239 236 237 228 229 212 192 187 178 174 167 149 145 150 158 162 163 166 171 165 147 147 157 198 215 215 223 221 238 251
230 242 219 208 210 195 229 219 237 231 212 249 234 279 232 210 219 214 204 189 182 181 181 175 171 168 165 157 156 162 164 169 168 171 187 212 239 250 247 257 241 234 243 253
213 199 204 201 216 199 230 30 229 229 236 271 220 258 243 165 229 221 202 193 184 179 178 175 176 174 175 170 174 175 175 179 174 188 206 214 235 247 253 247 252 245 246 245
206 209 197 213 205 203 144 113 92 110 176 224 216 213 268 210 205 209 190 186 175 170 172 172 170 171 177 173 182 187 188 192 192 197 205 224 238 244 245 243 252 248 249 239
169 176 160 181 126 123 162 144 152 188 202 235 156 198 249 321 192 189 184 178 171 168 171 172 175 176 178 184 189 192 200 208 206 212 222 226 236 245 254 258 256 256 247 236
196 196 168 173 198 177 188 182 180 209 198 183 154 223 242 292 86 107 156 154 158 166 170 175 176 182 185 192 197 203 211 222 215 221 228 224 231 239 247 250 252 254 247 243
190 219 185 171 153 149 166 214 89 107 13 188 201 258 271 188 164 162 160 158 167 170 171 170 164 172 174 184 191 206 220 227 222 222 226 229 234 241 251 253 256 255 252 231
201 191 190 138 122 166 199 135 149 179 172 219 214 264 249 203 190 169 170 171 169 166 164 161 157 160 160 173 192 224 221 224 234 229 230 238 237 240 242 246 247 245 242 237
198 173 137 149 207 174 156 177 186 160 200 213 246 240 215 227 182 175 177 171 167 168 165 158 155 142 115 111 72 274 258 250 242 232 235 240 244 242 239 244 241 244 237 234
187 97 154 183 2 310 230 214 180 195 184 261 1 272 86 52 251 174 166 163 163 161 156 154 148 142 142 136 120 341 310 285 271 259 251 243 247 241 235 245 247 243 240 232
171 164 127 124 127 176 210 185 209 73 87 193 183 248 45 80 204 194 163 162 163 157 156 153 152 161 167 176 185 241 338 326 305 264 244 246 241 243 241 245 248 244 238 239
181 182 221 220 120 134 194 190 180 187 196 158 229 326 237 169 183 179 176 166 162 164 164 160 171 177 172 176 252 341 335 326 305 300 250 245 242 241 247 248 246 242 239 240
196 222 145 71 109 153 191 183 185 203 200 198 180 206 183 190 197 184 162 161 166 176 186 192 186 178 177 200 268 318 311 316 324 305 292 264 248 245 253 256 251 244 242 244
182 165 107 133 342 256 218 203 202 216 213 232 164 265 179 91 58 173 182 174 185 193 193 195 196 189 202 245 283 297 319 326 324 304 294 297 276 249 238 251 260 258 247 245
173 148 176 199 72 157 263 213 200 210 211 215 224 228 134 223 215 205 188 186 187 181 181 178 185 179 176 225 278 308 315 330 347 338 342 350 329 293 275 252 246 252 255 251
159 139 86 126 183 217 59 189 316 225 235 216 221 185 218 216 101 279 196 183 183 169 165 159 167 164 162 167 266 324 355 16 349 348 343 336 330 308 301 288 268 264 256 251
17 135 118 188 213 300 148 152 171 182 270 251 231 199 159 87 125 215 158 215 158 157 139 140 143 159 149 124 303 286 49 36 343 346 341 329 322 308 303 294 289 284 275 269
59 60 67 166 193 220 30 29 113 11 294 353 302 229 163 152 191 151 147 138 119 119 138 147 159 162 127 99 312 135 66 13 346 337 329 324 316 307 300 295 294 291 284 282
62 36 100 135 329 287 337 99 140 123 15 347 269 265 172 184 5 114 130 110 124 133 143 145 153 138 134 151 216 100 117 18 332 325 325 324 319 309 296 301 301 297 296 287
112 126 128 107 150 274 137 123 237 27 129 244 212 197 160 103 124 127 115 129 137 137 149 164 159 145 131 82 91 97 46 346 336 332 325 323 316 307 307 306 298 301 296 284
169 336 313 235 31 25 201 323 102 151 305 205 199 176 150 139 157 152 149 151 151 157 164 158 156 141 129 64 44 91 18 340 340 331 320 313 319 318 317 302 310 314 315 305
203 150 311 327 17 267 232 231 254 198 228 198 179 155 167 156 157 155 153 158 156 160 162 164 159 147 151 155 108 13 350 345 333 319 317 315 325 330 325 315 323 320 314 315
14 126 335 282 317 261 233 295 305 210 213 165 139 159 171 159 172 169 170 168 160 156 152 166 166 167 168 209 254 329 335 341 310 302 294 308 313 326 324 332 318 314 296 290
350 3 356 354 4 320 349 344 353 202 209 198 161 147 148 169 163 168 165 162 154 151 155 165 172 188 233 279 278 264 249 273 291 294 298 318 311 324 322 326 321 287 291 305